When you browse on this site, cookies collect data to enhance your experience and personalize the content and advertising you see.
Visit our Privacy Policy to learn more. By continuing to use the site, you agree to this use of cookies and data.
  • In Hungary
  • List of Countries
  • For 7 days
  • Water Temperature
  • Weather Map
  • News
  • Weather Widgets
  • user-avatar
    Login

    Hourly Weather Kadaiyanallur

    Today, 18 November, Monday

    Time Temperature Precipitation Wind Pressure Humidity
    00:00 +26°C° 0 mm 1 mps 738 mmHg 90%
    01:00 +26°C° 0 mm 1 mps 737 mmHg 91%
    02:00 +26°C° 0 mm 1 mps 737 mmHg 91%
    03:00 +26°C° 0 mm 1 mps 737 mmHg 92%
    04:00 +25°C° 0 mm 1 mps 737 mmHg 93%
    05:00 +23°C° 0 mm 0 mps 737 mmHg 95%
    06:00 +26°C° 0 mm 1 mps 738 mmHg 91%
    07:00 +27°C° 0 mm 1 mps 738 mmHg 87%
    08:00 +28°C° 0 mm 1 mps 739 mmHg 82%
    09:00 +29°C° 0.1 mm 2 mps 739 mmHg 77%
    10:00 +30°C° 0.1 mm 2 mps 739 mmHg 71%
    11:00 +32°C° 0 mm 2 mps 739 mmHg 63%
    12:00 +32°C° 0.2 mm 2 mps 738 mmHg 63%
    13:00 +32°C° 0.2 mm 2 mps 737 mmHg 62%
    14:00 +32°C° 0.2 mm 2 mps 736 mmHg 62%
    15:00 +31°C° 0.8 mm 2 mps 737 mmHg 68%
    16:00 +30°C° 0.8 mm 2 mps 737 mmHg 74%
    17:00 +29°C° 0 mm 1 mps 737 mmHg 82%
    18:00 +28°C° 0.5 mm 1 mps 737 mmHg 84%
    19:00 +28°C° 0.5 mm 1 mps 738 mmHg 86%
    20:00 +27°C° 0.5 mm 1 mps 738 mmHg 88%
    21:00 +27°C° 0.5 mm 1 mps 738 mmHg 89%
    22:00 +27°C° 0.5 mm 1 mps 738 mmHg 89%
    23:00 +26°C° 0.5 mm 1 mps 738 mmHg 90%

    Tomorrow, 19 November, Tuesday

    Time Temperature Precipitation Wind Pressure Humidity
    00:00 +26°C° 0.3 mm 1 mps 738 mmHg 91%
    01:00 +26°C° 0.3 mm 2 mps 737 mmHg 91%
    02:00 +26°C° 0.3 mm 2 mps 736 mmHg 92%
    03:00 +26°C° 0.1 mm 2 mps 737 mmHg 93%
    04:00 +25°C° 0.1 mm 1 mps 737 mmHg 93%
    05:00 +25°C° 0.1 mm 1 mps 737 mmHg 94%
    06:00 +26°C° 0 mm 2 mps 738 mmHg 90%
    07:00 +27°C° 0 mm 2 mps 738 mmHg 86%
    08:00 +28°C° 0 mm 2 mps 739 mmHg 82%
    09:00 +29°C° 0 mm 2 mps 739 mmHg 74%
    10:00 +31°C° 0 mm 3 mps 738 mmHg 66%
    11:00 +33°C° 0 mm 3 mps 738 mmHg 58%
    12:00 +33°C° 0 mm 3 mps 737 mmHg 57%
    13:00 +33°C° 0 mm 3 mps 737 mmHg 56%
    14:00 +34°C° 0 mm 3 mps 736 mmHg 54%
    15:00 +32°C° 0 mm 2 mps 736 mmHg 59%
    16:00 +31°C° 0 mm 2 mps 736 mmHg 63%
    17:00 +30°C° 0 mm 2 mps 736 mmHg 68%
    18:00 +29°C° 0 mm 1 mps 737 mmHg 72%
    19:00 +28°C° 0 mm 1 mps 737 mmHg 75%
    20:00 +27°C° 0 mm 1 mps 738 mmHg 79%
    21:00 +27°C° 0.1 mm 1 mps 738 mmHg 82%
    22:00 +27°C° 0.1 mm 1 mps 738 mmHg 85%
    23:00 +26°C° 0.1 mm 1 mps 737 mmHg 88%

    Day after tomorrow, 20 November, Wednesday

    Time Temperature Precipitation Wind Pressure Humidity
    00:00 +26°C° 0.3 mm 1 mps 737 mmHg 88%
    01:00 +26°C° 0.3 mm 1 mps 737 mmHg 89%
    02:00 +26°C° 0.3 mm 1 mps 736 mmHg 89%
    03:00 +26°C° 0.1 mm 1 mps 736 mmHg 89%
    04:00 +26°C° 0.1 mm 1 mps 736 mmHg 89%
    05:00 +26°C° 0.1 mm 1 mps 736 mmHg 90%
    06:00 +27°C° 0 mm 2 mps 737 mmHg 85%
    07:00 +27°C° 0 mm 2 mps 737 mmHg 81%
    08:00 +28°C° 0 mm 3 mps 738 mmHg 76%
    09:00 +29°C° 0 mm 3 mps 738 mmHg 71%
    10:00 +30°C° 0 mm 3 mps 737 mmHg 67%
    11:00 +31°C° 0 mm 3 mps 737 mmHg 62%
    12:00 +33°C° 0 mm 3 mps 737 mmHg 60%
    13:00 +32°C° 0 mm 2 mps 736 mmHg 58%
    14:00 +32°C° 0 mm 2 mps 735 mmHg 57%
    15:00 +31°C° 0.6 mm 2 mps 735 mmHg 63%
    16:00 +30°C° 0.6 mm 2 mps 735 mmHg 69%
    17:00 +29°C° 0.6 mm 2 mps 735 mmHg 75%
    18:00 +29°C° 2.4 mm 1 mps 736 mmHg 79%
    19:00 +28°C° 2.4 mm 1 mps 737 mmHg 83%
    20:00 +27°C° 2.4 mm 1 mps 737 mmHg 87%
    21:00 +27°C° 1.5 mm 1 mps 737 mmHg 87%
    22:00 +27°C° 1.5 mm 1 mps 737 mmHg 88%
    23:00 +27°C° 1.5 mm 1 mps 737 mmHg 88%

    21 November, Thursday

    Time Temperature Precipitation Wind Pressure Humidity
    00:00 +26°C° 0.3 mm 1 mps 737 mmHg 88%
    01:00 +26°C° 0.3 mm 2 mps 736 mmHg 88%
    02:00 +26°C° 0.3 mm 2 mps 736 mmHg 89%
    03:00 +26°C° 0.1 mm 2 mps 736 mmHg 89%
    04:00 +25°C° 0.1 mm 2 mps 736 mmHg 89%
    05:00 +25°C° 0.1 mm 2 mps 736 mmHg 90%
    06:00 +26°C° 0.1 mm 2 mps 737 mmHg 86%
    07:00 +27°C° 0.1 mm 3 mps 737 mmHg 82%
    08:00 +28°C° 0.1 mm 3 mps 738 mmHg 78%
    09:00 +29°C° 0.1 mm 3 mps 738 mmHg 74%
    10:00 +30°C° 0.1 mm 3 mps 738 mmHg 69%
    11:00 +32°C° 0.1 mm 4 mps 738 mmHg 64%
    12:00 +32°C° 0.6 mm 4 mps 737 mmHg 65%
    13:00 +32°C° 0.6 mm 4 mps 736 mmHg 66%
    14:00 +32°C° 0.6 mm 4 mps 735 mmHg 67%
    15:00 +30°C° 0.8 mm 3 mps 735 mmHg 71%
    16:00 +29°C° 0.8 mm 3 mps 736 mmHg 75%
    17:00 +28°C° 0.8 mm 2 mps 736 mmHg 79%
    18:00 +28°C° 0.2 mm 2 mps 736 mmHg 81%
    19:00 +27°C° 0.2 mm 2 mps 737 mmHg 84%
    20:00 +26°C° 0.2 mm 2 mps 738 mmHg 86%
    21:00 +26°C° 0.2 mm 2 mps 738 mmHg 88%
    22:00 +26°C° 0.2 mm 2 mps 738 mmHg 89%
    23:00 +25°C° 0.2 mm 2 mps 738 mmHg 91%

    22 November, Friday

    Time Temperature Precipitation Wind Pressure Humidity
    00:00 +25°C° 0.1 mm 2 mps 737 mmHg 92%
    01:00 +25°C° 0.1 mm 2 mps 737 mmHg 92%
    02:00 +25°C° 0.1 mm 1 mps 737 mmHg 93%
    03:00 +25°C° 0 mm 1 mps 737 mmHg 92%
    04:00 +24°C° 0 mm 1 mps 737 mmHg 90%
    05:00 +24°C° 0 mm 1 mps 737 mmHg 89%
    06:00 +25°C° 0 mm 1 mps 738 mmHg 85%
    07:00 +26°C° 0 mm 2 mps 738 mmHg 81%
    08:00 +27°C° 0 mm 2 mps 739 mmHg 77%
    09:00 +28°C° 0 mm 2 mps 739 mmHg 72%
    10:00 +30°C° 0 mm 3 mps 739 mmHg 67%
    11:00 +31°C° 0 mm 3 mps 739 mmHg 62%
    12:00 +31°C° 0.3 mm 3 mps 738 mmHg 63%
    13:00 +31°C° 0.3 mm 3 mps 737 mmHg 64%
    14:00 +31°C° 0.3 mm 3 mps 737 mmHg 64%
    15:00 +30°C° 1.5 mm 3 mps 737 mmHg 72%
    16:00 +28°C° 1.5 mm 3 mps 737 mmHg 79%
    17:00 +27°C° 1.5 mm 2 mps 737 mmHg 86%
    18:00 +27°C° 1.2 mm 2 mps 737 mmHg 88%
    19:00 +26°C° 1.2 mm 2 mps 738 mmHg 90%
    20:00 +26°C° 1.2 mm 2 mps 738 mmHg 92%
    21:00 +26°C° 0.1 mm 2 mps 738 mmHg 92%
    22:00 +26°C° 0.1 mm 2 mps 738 mmHg 91%
    23:00 +26°C° 0.1 mm 2 mps 738 mmHg 91%

    23 November, Saturday

    Time Temperature Precipitation Wind Pressure Humidity
    00:00 +26°C° 0.1 mm 2 mps 738 mmHg 91%
    01:00 +25°C° 0.1 mm 2 mps 737 mmHg 92%
    02:00 +25°C° 0.1 mm 2 mps 737 mmHg 92%
    03:00 +25°C° 0.1 mm 2 mps 737 mmHg 92%
    04:00 +25°C° 0.1 mm 2 mps 737 mmHg 92%
    05:00 +25°C° 0.1 mm 2 mps 737 mmHg 92%
    06:00 +26°C° 0.1 mm 2 mps 738 mmHg 88%
    07:00 +27°C° 0.1 mm 2 mps 738 mmHg 85%
    08:00 +27°C° 0.1 mm 3 mps 739 mmHg 81%
    09:00 +28°C° 0.2 mm 3 mps 738 mmHg 77%
    10:00 +29°C° 0.2 mm 4 mps 738 mmHg 73%
    11:00 +30°C° 0.2 mm 4 mps 738 mmHg 70%
    12:00 +32°C° 0.6 mm 4 mps 737 mmHg 69%
    13:00 +32°C° 0.6 mm 4 mps 737 mmHg 68%
    14:00 +31°C° 0.6 mm 3 mps 736 mmHg 67%
    15:00 +30°C° 1.3 mm 3 mps 736 mmHg 73%
    16:00 +29°C° 1.3 mm 3 mps 736 mmHg 78%
    17:00 +28°C° 1.3 mm 2 mps 736 mmHg 84%
    18:00 +27°C° 0.7 mm 3 mps 737 mmHg 85%
    19:00 +27°C° 0.7 mm 3 mps 737 mmHg 86%
    20:00 +26°C° 0.7 mm 3 mps 738 mmHg 88%
    21:00 +26°C° 0.2 mm 3 mps 738 mmHg 89%
    22:00 +26°C° 0.2 mm 3 mps 738 mmHg 90%
    23:00 +26°C° 0.2 mm 3 mps 738 mmHg 91%
    Show more